Weather History for PATA - January, 2014

Change the Weather History Date:

Wednesday, January 29, 2014

  Actual Average Record
Temperature  
Mean Temperature 14 °F -  
Max Temperature 21 °F -2 °F 34 °F (1957)
Min Temperature 6 °F -20 °F -58 °F (1989)
Degree Days  
Heating Degree Days 52    
Moisture  
Dew Point 12 °F    
Average Humidity 83    
Maximum Humidity 92    
Minimum Humidity 74    
Precipitation  
Precipitation 0.00 in - - ()
Snow  
Snow 0.00 in - - ()
Snow Depth 9.00 in    
Sea Level Pressure  
Sea Level Pressure 30.12 in    
Wind  
Wind Speed 2 mph (ENE)    
Max Wind Speed 8 mph    
Max Gust Speed -    
Visibility 10 miles    
Events      
Averages and records for this station are not official NWS values.
T = Trace of Precipitation, MM = Missing Value Source: NWS Daily Summary

Daily Weather History Graph

Daily Weather History Graph

Search for Another Location

Airport or City:

Trip Planner

Search our weather history database for the weather conditions in past years. The results will help you decide how hot, cold, wet, or windy it might be!

Date:

Astronomy

Jan. 29, 2014 Rise Set
Actual Time 10:05 AM AKST 4:38 PM AKST
Civil Twilight 9:04 AM AKST 5:40 PM AKST
Nautical Twilight 8:01 AM AKST 6:42 PM AKST
Astronomical Twilight 7:03 AM AKST 7:40 PM AKST
Moon 8:52 AM AKST 3:55 PM AKST
Length of Visible Light 8h 35m
Length of Day
6h 32m
Waning Crescent, 2% of the Moon is Illuminated
Jan 29
Waning Crescent
Jan 30
New
Feb 6
First Quarter
Feb 14
Full
Feb 22
Last Quarter

Hourly Weather History & Observations

Time (AKST) Temp. Windchill Dew Point Humidity Pressure Visibility Wind Dir Wind Speed Gust Speed Precip Events Conditions
12:52 AM 19.9 °F - 18.0 °F 92% 30.04 in 10.0 mi Calm Calm - N/A   Overcast
1:52 AM 21.0 °F 16.2 °F 17.1 °F 85% 30.05 in 10.0 mi ESE 3.5 mph - N/A   Overcast
2:52 AM 19.9 °F - 17.1 °F 89% 30.06 in 10.0 mi Calm Calm - N/A   Overcast
3:52 AM 21.9 °F 17.2 °F 18.0 °F 85% 30.07 in 10.0 mi East 3.5 mph - N/A   Overcast
4:52 AM 21.9 °F 17.2 °F 18.0 °F 85% 30.08 in 10.0 mi ESE 3.5 mph - N/A   Overcast
5:52 AM 21.9 °F - 18.0 °F 85% 30.09 in 10.0 mi Calm Calm - N/A   Overcast
6:52 AM 21.9 °F 15.7 °F 17.1 °F 82% 30.08 in 10.0 mi ENE 4.6 mph - N/A   Overcast
7:52 AM 21.0 °F 11.4 °F 16.0 °F 81% 30.09 in 10.0 mi SE 8.1 mph - N/A   Mostly Cloudy
8:52 AM 19.9 °F 13.4 °F 16.0 °F 85% 30.10 in 10.0 mi NE 4.6 mph - N/A   Mostly Cloudy
9:52 AM 18.0 °F - 14.0 °F 84% 30.12 in 10.0 mi Calm Calm - N/A   Scattered Clouds
10:52 AM 17.1 °F - 12.9 °F 84% 30.13 in 10.0 mi Calm Calm - N/A   Partly Cloudy
11:52 AM 18.0 °F - 12.9 °F 81% 30.14 in 10.0 mi Calm Calm - N/A   Partly Cloudy
12:52 PM 19.0 °F - 12.9 °F 77% 30.14 in 10.0 mi Calm Calm - N/A   Partly Cloudy
1:52 PM 18.0 °F - 12.0 °F 78% 30.15 in 10.0 mi Calm Calm - N/A   Partly Cloudy
2:52 PM 18.0 °F 9.8 °F 10.9 °F 74% 30.14 in 10.0 mi NE 5.8 mph - N/A   Partly Cloudy
3:52 PM 17.1 °F 11.7 °F 10.9 °F 77% 30.15 in 10.0 mi NNE 3.5 mph - N/A   Clear
4:52 PM 15.1 °F - 10.0 °F 80% 30.14 in 10.0 mi Calm Calm - N/A   Clear
5:52 PM 12.9 °F 5.2 °F 9.0 °F 84% 30.15 in 10.0 mi NE 4.6 mph - N/A   Clear
6:52 PM 12.0 °F 2.7 °F 9.0 °F 88% 30.15 in 10.0 mi NE 5.8 mph - N/A   Clear
7:52 PM 12.0 °F 4.1 °F 8.1 °F 84% 30.16 in 10.0 mi NE 4.6 mph - N/A   Clear
8:52 PM 12.0 °F - 8.1 °F 84% 30.17 in 10.0 mi Calm Calm - N/A   Clear
9:52 PM 7.0 °F - 3.9 °F 87% 30.17 in 10.0 mi Calm Calm - N/A   Clear
10:52 PM 6.1 °F -0.9 °F 3.0 °F 87% 30.18 in 10.0 mi WNW 3.5 mph - N/A   Clear
11:52 PM 7.0 °F -1.7 °F 3.0 °F 84% 30.19 in 10.0 mi Variable 4.6 mph - N/A   Clear